Regional Weather Roundup
Issued by NWS

Home | Current Version | Previous Version | Text Only | Print | Product List | Glossary Off
Versions: 1 2 3 4 5 6 7 8 9 10 11 12 13 14 15 16 17 18 19 20 21 22 23 24 25 26 27 28 29 30 31 32 33 34 35 36 37 38 39 40 41 42 43 44 45 46 47 48 49 50

801
ASUS43 KIND 271209
RWRIN

WEATHER ROUNDUP FOR INDIANA
NATIONAL WEATHER SERVICE INDIANAPOLIS IN
800 AM EDT SAT MAY 27 2017

NOTE: "FAIR" INDICATES FEW OR NO CLOUDS BELOW 12,000 FEET WITH NO
SIGNIFICANT WEATHER AND/OR OBSTRUCTIONS TO VISIBILITY.

* - STATION DOES NOT REPORT WEATHER SUCH AS PRECIPITATION OR FOG.

+ - STATION NOT QUALITY CONTROLLED BY THE NATIONAL WEATHER SERVICE.
    USE DATA WITH CAUTION...ESPECIALLY DEWPOINT AND RELATIVE
    HUMIDITY OBSERVATIONS.

INZ001>003-010>013-019-020-271300-
NORTHWEST INDIANA

CITY           SKY/WX    TMP DP  RH WIND       PRES   REMARKS
GARY /AIRPORT/ CLOUDY    55  52  88 N6        29.90R
KNOX *+        PTSUNNY   59  54  82 NE5       29.87S
LA PORTE +     CLOUDY    59  57  94 NE5       29.89R
6HR MIN TEMP:  58; 6HR MAX TEMP:  60;

MICHIGAN CITY+ FOG       55  55 100 N6        29.90R VSB 1/2
MONTICELLO +   CLOUDY    60  59  96 N5        29.86S FOG
6HR MIN TEMP:  58; 6HR MAX TEMP:  64;

RENSSELAER +   CLOUDY    61  59  94 N6        29.88R FOG
VALPARAISO     CLOUDY    61  59  93 N5        29.89R
6HR MIN TEMP:  60; 6HR MAX TEMP:  62;


$$

LMZ046-743>745-271300-
SOUTHERN LAKE MICHIGAN

STATION/POSITION TIME  TEMP    WIND        PRES    WAVE
                       AIR SEA DIR/SP/G            HT
                 (UTC) (F)     (DEG/KT/KT) (MB)    (FT)
BURNS HARBOR     1200   54      50/  6/  8 1012.5
MICHIGAN CITY    1140   54      30/  7/  8   N/A
5NW MICH CITY    1200   52 53   20/  8/ 10   N/A     1

$$

INZ004-005-014>016-021>024-271300-
NORTH CENTRAL INDIANA

CITY           SKY/WX    TMP DP  RH WIND       PRES   REMARKS
ELKHART        PTSUNNY   59  57  94 E5        29.87
GOSHEN         CLOUDY    61  56  83 E7        29.86F
6HR MIN TEMP:  58; 6HR MAX TEMP:  61; 6HR PCP: TRACE;

LOGANSPORT +   FOG       61  61 100 N5        29.87R VSB 1
PERU/GRISSOM   CLOUDY    62  62 100 N6        29.85R FOG
6HR MIN TEMP:  62; 6HR MAX TEMP:  65;

ROCHESTER +    CLOUDY    61  61 100 N5        29.87R FOG
SOUTH BEND     CLOUDY    59  58  96 N3        29.89R
6HR MIN TEMP:  57; 6HR MAX TEMP:  59; 6HR PCP: TRACE;

WARSAW +       CLOUDY    59  59 100 E5        29.87S FOG

$$

INZ006>009-017-018-025>027-271300-
NORTHEAST INDIANA

CITY           SKY/WX    TMP DP  RH WIND       PRES   REMARKS
ANGOLA *+      CLOUDY    61  48  63 CALM      29.87S
AUBURN +       CLOUDY    61  57  88 NE5       29.88R FOG
FORT WAYNE     DRIZZLE   61  59  93 E7        29.86R FOG
6HR MIN TEMP:  61; 6HR MAX TEMP:  62; 6HR PCP:  0.06;

HUNTINGTON +   CLOUDY    61  59  95 E3        29.85S FOG
KENDALLVILLE + CLOUDY    59  59 100 E5        29.88S FOG

$$

INZ028-029-035-036-043>045-051>053-271300-
WEST CENTRAL INDIANA

CITY           SKY/WX    TMP DP  RH WIND       PRES   REMARKS
CRAWFORDSVL +  CLOUDY   -35 -35 100 CALM      29.87R FOG
6HR MIN TEMP: -37; 6HR MAX TEMP: -33; 6HR PCP:  0.03;

GREENCASTLE +  CLOUDY    68  63  83 CALM      29.88R
LAFAYETTE      FOG       60  60 100 NE6       29.86R VSB 1/4
6HR MIN TEMP:  60; 6HR MAX TEMP:  66;

TERRE HAUTE    CLOUDY    67  64  90 N5        29.87R
6HR MIN TEMP:  67; 6HR MAX TEMP:  70;


$$

INZ030>032-037>040-046>048-054>057-064-065-271300-
CENTRAL INDIANA

CITY           SKY/WX    TMP DP  RH WIND       PRES   REMARKS
CP ATTERBURY + CLOUDY    70  64  83 CALM      29.87R
COLUMBUS       CLOUDY    70  64  83 SW6       29.87R
FISHERS *+     CLOUDY    66  66 100 W5        29.87
FRANKFORT +    CLOUDY    66  64  94 NW5       29.88R FOG
6HR MIN TEMP:  66; 6HR MAX TEMP:  70;

GREENWOOD *+   CLOUDY    69  65  87 W5        29.87R
6HR MIN TEMP:  69; 6HR MAX TEMP:  71;

INDIANAPOLIS   CLOUDY    68  65  90 NW12      29.86R
6HR MIN TEMP:  66; 6HR MAX TEMP:  69;

-EAGLE CREEK   CLOUDY    68  64  87 W7        29.85R
6HR MIN TEMP:  67; 6HR MAX TEMP:  69;

KOKOMO +       CLOUDY    63  62  97 N7        29.86R FOG
6HR MIN TEMP:  63; 6HR MAX TEMP:  66; 6HR PCP: TRACE;

MARION +       CLOUDY    63  63 100 CALM      29.85R FOG
MT COMFORT *+    N/A     68  64  88 MISG        N/A
SHELBYVILLE    PTSUNNY   71  65  81 SW7       29.85R
6HR MIN TEMP:  70; 6HR MAX TEMP:  73;

ZIONSVILLE +   CLOUDY    64  63  96 NW6       29.88R FOG
6HR MIN TEMP:  61; 6HR MAX TEMP:  66;


$$

INZ033-034-041-042-049-050-058-059-271300-
EAST CENTRAL INDIANA

CITY           SKY/WX    TMP DP  RH WIND       PRES   REMARKS
MUNCIE         CLOUDY    68  65  90 W3        29.85R FOG
6HR MIN TEMP:  65; 6HR MAX TEMP:  68;

RICHMOND +     CLOUDY    64  63  94 SW7       29.87R

$$

INZ060-061-067>069-081>083-085>088-271300-
SOUTHWEST INDIANA

CITY           SKY/WX    TMP DP  RH WIND       PRES   REMARKS
EVANSVILLE     CLOUDY    71  67  87 SW6       29.89R FOG
6HR MIN TEMP:  69; 6HR MAX TEMP:  73;

HUNTINGBURG *+ CLOUDY    70  68  93 S6        29.90R FOG
6HR MIN TEMP:  68; 6HR MAX TEMP:  72;

WASHINGTON +   CLOUDY    69  67  93 W6        29.87R
6HR MIN TEMP:  68; 6HR MAX TEMP:  70;


$$

INZ062-063-066-070>080-084-089>092-271300-
SOUTH CENTRAL AND SOUTHEAST INDIANA

CITY           SKY/WX    TMP DP  RH WIND       PRES   REMARKS
BEDFORD +      CLOUDY    70  66  88 W3        29.88R
BLOOMINGTON    CLOUDY    70  65  84 SW5       29.87R
6HR MIN TEMP:  70; 6HR MAX TEMP:  72;

MADISON *+     CLOUDY    70  66  88 SW3       29.89S
NORTH VERNON + CLOUDY    68  66  94 SW6       29.88R
SEYMOUR +      CLOUDY    73  68  83 W6        29.87R

$$





USA.gov is the U.S. government's official web portal to all federal, state and local government web resources and services.